Location: Ferchesar
(52.6477°N, 12.4298°E)
Time: 04:42:45
(UTC+01:00)

Vanguard 1 Rocket - Pass Details

Date: 07 December 2021
Orbit: 651 x 4224 km, 34.3° (Epoch: 15 January)

Event Time Altitude Azimuth Distance (km) Brightness Sun altitude
Exits shadow 01:28:51 18° 119° (ESE) 4,371 10.8 -55.7°
Drops below altitude 10° 01:34:17 10° 102° (ESE) 5,618 11.5 -55.1°
Sets 01:41:19 0° 91° (E) 7,314 12.3 -54.4°
